| time (UTC) | temp F | wind direction | speed MPH | gust MPH | rain 1hr in | rain 24hr in | rain mn in | humidity % | barometer mb |
| 20260903173040 | 92 | 214 | 4.0 | 11.0 | 0.00 | 0.00 | 0.00 | 54 | 1007.9 |
| 20260903171538 | 92 | 90 | 2.0 | 11.0 | 0.00 | 0.00 | 0.00 | 57 | 1008.0 |
| 20260903170036 | 92 | 164 | 4.0 | 13.0 | 0.00 | 0.00 | 0.00 | 56 | 1008.2 |
| 20260903164535 | 91 | 194 | 4.0 | 10.0 | 0.00 | 0.00 | 0.00 | 58 | 1008.2 |
| 20260903163031 | 90 | 172 | 2.0 | 12.0 | 0.00 | 0.00 | 0.00 | 59 | 1008.3 |
| 20260903161529 | 90 | 91 | 2.0 | 12.0 | 0.00 | 0.00 | 0.00 | 61 | 1008.4 |
| 20260903160027 | 89 | 247 | 5.0 | 12.0 | 0.00 | 0.00 | 0.00 | 60 | 1008.4 |
| 20260903154524 | 88 | 223 | 4.0 | 11.0 | 0.00 | 0.00 | 0.00 | 61 | 1008.5 |
| 20260903153020 | 87 | 208 | 4.0 | 10.0 | 0.00 | 0.00 | 0.00 | 63 | 1008.6 |
| 20260903151519 | 86 | 159 | 3.0 | 11.0 | 0.00 | 0.00 | 0.00 | 64 | 1008.7 |
| 20260903150017 | 85 | 181 | 4.0 | 13.0 | 0.00 | 0.00 | 0.00 | 66 | 1008.6 |
| 20260903144514 | 84 | 214 | 5.0 | 11.0 | 0.00 | 0.00 | 0.00 | 67 | 1008.6 |
| 20260903143011 | 84 | 218 | 3.0 | 12.0 | 0.00 | 0.00 | 0.00 | 68 | 1008.7 |
| 20260903141512 | 83 | 238 | 4.0 | 11.0 | 0.00 | 0.00 | 0.00 | 69 | 1008.7 |
| 20260903140023 | 82 | 204 | 4.0 | 11.0 | 0.00 | 0.00 | 0.00 | 69 | 1008.6 |
| 20260903134508 | 82 | 166 | 3.0 | 8.0 | 0.00 | 0.00 | 0.00 | 69 | 1008.6 |
| 20260903133007 | 81 | 202 | 2.0 | 8.0 | 0.00 | 0.00 | 0.00 | 71 | 1008.7 |
| 20260903131509 | 81 | 193 | 2.0 | 6.0 | 0.00 | 0.00 | 0.00 | 71 | 1008.8 |
| 20260903130005 | 80 | 212 | 3.0 | 8.0 | 0.00 | 0.00 | 0.00 | 71 | 1008.6 |
| 20260903124504 | 79 | 177 | 2.0 | 6.0 | 0.00 | 0.00 | 0.00 | 71 | 1008.7 |
| 20260903123004 | 79 | 251 | 2.0 | 7.0 | 0.00 | 0.00 | 0.00 | 72 | 1008.5 |
| 20260903121503 | 79 | 247 | 1.0 | 6.0 | 0.00 | 0.00 | 0.00 | 72 | 1008.4 |
| 20260903120002 | 79 | 170 | 1.0 | 4.0 | 0.00 | 0.00 | 0.00 | 71 | 1008.3 |
| 20260903114600 | 79 | 194 | 0.0 | 8.0 | 0.00 | 0.00 | 0.00 | 71 | 1008.1 |
| 20260903113100 | 79 | 214 | 1.0 | 7.0 | 0.00 | 0.00 | 0.00 | 70 | 1008.0 |
| 20260903111602 | 79 | 140 | 3.0 | 7.0 | 0.00 | 0.00 | 0.00 | 70 | 1007.9 |
| 20260903110056 | 80 | 227 | 2.0 | 7.0 | 0.00 | 0.00 | 0.00 | 69 | 1007.9 |
| 20260903104559 | 80 | 210 | 3.0 | 8.0 | 0.00 | 0.00 | 0.00 | 68 | 1007.8 |
| 20260903103055 | 81 | 192 | 2.0 | 7.0 | 0.00 | 0.00 | 0.00 | 67 | 1007.7 |
| 20260903101556 | 81 | 142 | 1.0 | 6.0 | 0.00 | 0.00 | 0.00 | 67 | 1007.6 |
| 20260903100055 | 80 | 216 | 1.0 | 7.0 | 0.00 | 0.00 | 0.00 | 68 | 1007.5 |
| 20260903094605 | 80 | 114 | 0.0 | 3.0 | 0.00 | 0.00 | 0.00 | 68 | 1007.6 |
| 20260903093055 | 80 | 112 | 1.0 | 3.0 | 0.00 | 0.00 | 0.00 | 68 | 1007.6 |
| 20260903091552 | 80 | 85 | 0.0 | 3.0 | 0.00 | 0.00 | 0.00 | 67 | 1007.6 |
| 20260903084551 | 78 | 138 | 0.0 | 3.0 | 0.00 | 0.00 | 0.00 | 71 | 1007.7 |
| 20260903083059 | 78 | 131 | 0.0 | 0.0 | 0.00 | 0.00 | 0.00 | 73 | 1007.7 |
| 20260903081548 | 78 | 131 | 0.0 | 0.0 | 0.00 | 0.00 | 0.00 | 72 | 1007.5 |
| 20260903080045 | 79 | 131 | 0.0 | 0.0 | 0.00 | 0.00 | 0.00 | 70 | 1007.5 |
| 20260903074543 | 80 | 131 | 0.0 | 0.0 | 0.00 | 0.00 | 0.00 | 68 | 1007.5 |
| 20260903073040 | 80 | 131 | 0.0 | 0.0 | 0.00 | 0.00 | 0.00 | 67 | 1007.5 |
| 20260903071550 | 81 | 131 | 0.0 | 1.0 | 0.00 | 0.00 | 0.00 | 66 | 1007.6 |
| 20260903070036 | 81 | 131 | 0.0 | 3.0 | 0.00 | 0.00 | 0.00 | 65 | 1007.6 |
| 20260903064534 | 81 | 131 | 0.0 | 0.0 | 0.00 | 0.00 | 0.00 | 65 | 1007.6 |
| 20260903063041 | 82 | 131 | 0.0 | 0.0 | 0.00 | 0.00 | 0.00 | 64 | 1007.6 |
| 20260903061535 | 83 | 131 | 0.0 | 3.0 | 0.00 | 0.00 | 0.00 | 63 | 1007.6 |
| 20260903060104 | 83 | 126 | 0.0 | 1.0 | 0.00 | 0.00 | 0.00 | 62 | 1007.7 |
| 20260903054532 | 83 | 126 | 0.0 | 2.0 | 0.00 | 0.00 | 0.00 | 62 | 1007.6 |
| 20260903053025 | 83 | 126 | 0.0 | 2.0 | 0.00 | 0.00 | 0.00 | 62 | 1007.6 |
| 20260903051524 | 83 | 125 | 0.0 | 3.0 | 0.00 | 0.00 | 0.00 | 63 | 1007.6 |
| 20260903050024 | 83 | 125 | 0.0 | 2.0 | 0.00 | 0.00 | 0.00 | 63 | 1007.6 |
| 20260903044524 | 82 | 125 | 0.0 | 2.0 | 0.00 | 0.00 | 0.00 | 64 | 1007.6 |
| 20260903043123 | 82 | 125 | 0.0 | 1.0 | 0.00 | 0.00 | 0.00 | 65 | 1007.6 |
| 20260903041524 | 82 | 125 | 0.0 | 1.0 | 0.00 | 0.00 | 0.00 | 67 | 1007.6 |
| 20260903040032 | 82 | 125 | 0.0 | 2.0 | 0.00 | 0.00 | 0.00 | 68 | 1007.6 |
| 20260903034522 | 81 | 125 | 0.0 | 1.0 | 0.00 | 0.00 | 0.00 | 70 | 1007.7 |
| 20260903033022 | 81 | 125 | 0.0 | 0.0 | 0.00 | 0.00 | 0.00 | 71 | 1007.6 |
| 20260903031527 | 81 | 125 | 0.0 | 0.0 | 0.00 | 0.00 | 0.00 | 72 | 1007.6 |
| 20260903030021 | 81 | 125 | 0.0 | 0.0 | 0.00 | 0.00 | 0.00 | 73 | 1007.5 |
| 20260903024520 | 82 | 125 | 0.0 | 2.0 | 0.00 | 0.00 | 0.00 | 72 | 1007.5 |
| 20260903023024 | 82 | 125 | 0.0 | 0.0 | 0.00 | 0.00 | 0.00 | 72 | 1007.5 |
| 20260903021520 | 83 | 125 | 0.0 | 0.0 | 0.00 | 0.00 | 0.00 | 71 | 1007.3 |
| 20260903020019 | 84 | 125 | 0.0 | 0.0 | 0.00 | 0.00 | 0.00 | 70 | 1007.1 |
| 20260903014518 | 85 | 125 | 0.0 | 0.0 | 0.00 | 0.00 | 0.00 | 68 | 1006.9 |
| 20260903013019 | 86 | 125 | 0.0 | 0.0 | 0.00 | 0.00 | 0.00 | 67 | 1006.8 |
| 20260903011518 | 87 | 125 | 0.0 | 1.0 | 0.00 | 0.00 | 0.00 | 66 | 1006.6 |
| 20260903010036 | 88 | 125 | 0.0 | 2.0 | 0.00 | 0.00 | 0.00 | 64 | 1006.6 |
| 20260903004516 | 90 | 126 | 0.0 | 1.0 | 0.00 | 0.00 | 0.00 | 61 | 1006.5 |
| 20260903003016 | 93 | 125 | 0.0 | 2.0 | 0.00 | 0.00 | 0.00 | 56 | 1006.5 |
| 20260903001525 | 95 | 125 | 0.0 | 1.0 | 0.00 | 0.00 | 0.00 | 50 | 1006.5 |
| 20260903000015 | 97 | 125 | 0.0 | 1.0 | 0.00 | 0.00 | 0.00 | 47 | 1006.5 |
| 20260902234521 | 98 | 125 | 0.0 | 2.0 | 0.00 | 0.00 | 0.00 | 44 | 1006.5 |
| 20260902233014 | 98 | 125 | 1.0 | 7.0 | 0.00 | 0.00 | 0.00 | 44 | 1006.6 |
| 20260902231529 | 99 | 102 | 1.0 | 5.0 | 0.00 | 0.00 | 0.00 | 42 | 1006.6 |
| 20260902230012 | 100 | 197 | 2.0 | 6.0 | 0.00 | 0.00 | 0.00 | 40 | 1006.7 |
| 20260902224512 | 99 | 134 | 2.0 | 9.0 | 0.00 | 0.00 | 0.00 | 42 | 1006.7 |
| 20260902223013 | 99 | 227 | 4.0 | 11.0 | 0.00 | 0.00 | 0.00 | 40 | 1006.7 |
| 20260902221517 | 99 | 247 | 4.0 | 11.0 | 0.00 | 0.00 | 0.00 | 40 | 1006.7 |
| 20260902220024 | 100 | 190 | 3.0 | 8.0 | 0.00 | 0.00 | 0.00 | 40 | 1006.7 |
| 20260902214509 | 100 | 148 | 4.0 | 13.0 | 0.00 | 0.00 | 0.00 | 40 | 1006.9 |
| 20260902213008 | 99 | 155 | 2.0 | 8.0 | 0.00 | 0.00 | 0.00 | 41 | 1006.9 |
| 20260902211505 | 100 | 272 | 2.0 | 10.0 | 0.00 | 0.00 | 0.00 | 41 | 1007.2 |
| 20260902210005 | 100 | 86 | 3.0 | 10.0 | 0.00 | 0.00 | 0.00 | 40 | 1007.3 |
| 20260902204502 | 99 | 167 | 5.0 | 10.0 | 0.00 | 0.00 | 0.00 | 41 | 1007.5 |
| 20260902203003 | 100 | 170 | 4.0 | 7.0 | 0.00 | 0.00 | 0.00 | 42 | 1007.6 |
| 20260902201559 | 100 | 237 | 3.0 | 10.0 | 0.00 | 0.00 | 0.00 | 42 | 1007.8 |
| 20260902200057 | 99 | 141 | 3.0 | 8.0 | 0.00 | 0.00 | 0.00 | 44 | 1007.9 |
| 20260902194554 | 98 | 138 | 3.0 | 12.0 | 0.00 | 0.00 | 0.00 | 45 | 1008.2 |
| 20260902193053 | 98 | 164 | 4.0 | 11.0 | 0.00 | 0.00 | 0.00 | 46 | 1008.3 |
| 20260902191552 | 98 | 105 | 5.0 | 11.0 | 0.00 | 0.00 | 0.00 | 47 | 1008.5 |
| 20260902190049 | 98 | 116 | 2.0 | 12.0 | 0.00 | 0.00 | 0.00 | 48 | 1008.7 |
| 20260902184546 | 97 | 126 | 2.0 | 8.0 | 0.00 | 0.00 | 0.00 | 50 | 1008.9 |
| 20260902183044 | 96 | 99 | 3.0 | 13.0 | 0.00 | 0.00 | 0.00 | 50 | 1009.1 |
| 20260902181552 | 96 | 231 | 4.0 | 11.0 | 0.00 | 0.00 | 0.00 | 49 | 1009.3 |
| 20260902180053 | 96 | 214 | 5.0 | 11.0 | 0.00 | 0.00 | 0.00 | 49 | 1009.5 |
| 20260902174539 | 95 | 143 | 3.0 | 11.0 | 0.00 | 0.00 | 0.00 | 52 | 1009.7 |